Voltar ao catálogo

STARLINK-31694

AtivoComunicaçõesVLEO
NORAD 60140·PAYLOAD·🇺🇸 United States

Lançado Jun 27, 2024 de Cape Canaveral Space Force Station

Loading…

Próximas Passagens (próximas 24 horas)

TLE

AtualizadoSource: CelesTrak SupGP

Época: Sep 14, 2026, 22:38 UTC

1 60140C 24120F   26257.94354167 -.00079511  00000+0 -23484-2 0  2575
2 60140  53.1567 157.8766 0001207  91.7267 278.6159 15.34441346    16

Acompanhe STARLINK-31694 em tempo real com AllMySat

Download on the App Store